| time (UTC) | temp F | wind direction | speed MPH | gust MPH | rain 1hr in | rain 24hr in | rain mn in | humidity % | barometer mb |
| 20260831203145 | 82 | 7 | 7.0 | 12.0 | 0.00 | 0.20 | 0.20 | 65 | 1017.7 |
| 20260831202124 | 81 | 5 | 6.0 | 11.0 | 0.00 | 0.20 | 0.20 | 68 | 1017.7 |
| 20260831201124 | 78 | 28 | 5.0 | 8.0 | 0.00 | 0.20 | 0.20 | 76 | 1017.8 |
| 20260831200124 | 77 | 30 | 5.0 | 10.0 | 0.00 | 0.20 | 0.20 | 79 | 1017.8 |
| 20260831195124 | 76 | 15 | 6.0 | 12.0 | 0.00 | 0.20 | 0.20 | 80 | 1017.9 |
| 20260831194125 | 76 | 40 | 7.0 | 11.0 | 0.00 | 0.20 | 0.20 | 80 | 1017.7 |
| 20260831193145 | 76 | 69 | 6.0 | 10.0 | 0.00 | 0.20 | 0.20 | 80 | 1017.9 |
| 20260831192124 | 76 | 8 | 9.0 | 13.0 | 0.00 | 0.20 | 0.20 | 79 | 1017.6 |
| 20260831191125 | 77 | 4 | 8.0 | 14.0 | 0.00 | 0.20 | 0.20 | 79 | 1018.2 |
| 20260831190145 | 77 | 0 | 9.0 | 14.0 | 0.00 | 0.20 | 0.20 | 77 | 1018.1 |
| 20260831185146 | 77 | 5 | 8.0 | 14.0 | 0.00 | 0.20 | 0.20 | 77 | 1017.9 |
| 20260831184125 | 76 | 13 | 7.0 | 12.0 | 0.00 | 0.20 | 0.20 | 79 | 1017.9 |
| 20260831183123 | 76 | 22 | 6.0 | 11.0 | 0.00 | 0.20 | 0.20 | 79 | 1017.9 |
| 20260831182146 | 76 | 7 | 11.0 | 16.0 | 0.00 | 0.20 | 0.20 | 77 | 1017.9 |
| 20260831181123 | 76 | 37 | 7.0 | 14.0 | 0.00 | 0.20 | 0.20 | 81 | 1017.9 |
| 20260831180122 | 76 | 45 | 5.0 | 9.0 | 0.00 | 0.20 | 0.20 | 81 | 1018.0 |
| 20260831175123 | 76 | 101 | 6.0 | 12.0 | 0.00 | 0.20 | 0.20 | 80 | 1018.2 |
| 20260831174122 | 75 | 38 | 4.0 | 8.0 | 0.02 | 0.20 | 0.20 | 83 | 1018.1 |
| 20260831173123 | 75 | 50 | 3.0 | 6.0 | 0.05 | 0.20 | 0.20 | 85 | 1018.4 |
| 20260831172145 | 74 | 360 | 6.0 | 10.0 | 0.07 | 0.20 | 0.20 | 85 | 1018.4 |
| 20260831171144 | 74 | 0 | 6.0 | 10.0 | 0.07 | 0.20 | 0.20 | 87 | 1018.2 |
| 20260831170123 | 73 | 1 | 9.0 | 15.0 | 0.10 | 0.20 | 0.20 | 87 | 1018.1 |
| 20260831165145 | 73 | 1 | 9.0 | 16.0 | 0.10 | 0.20 | 0.20 | 87 | 1017.9 |
| 20260831164124 | 73 | 360 | 11.0 | 17.0 | 0.10 | 0.18 | 0.18 | 87 | 1017.5 |
| 20260831163144 | 73 | 360 | 9.0 | 14.0 | 0.10 | 0.15 | 0.15 | 87 | 1017.6 |
| 20260831162122 | 73 | 1 | 5.0 | 9.0 | 0.09 | 0.14 | 0.14 | 86 | 1018.1 |
| 20260831161144 | 73 | 5 | 4.0 | 6.0 | 0.09 | 0.11 | 0.11 | 86 | 1018.0 |
| 20260831160124 | 73 | 8 | 5.0 | 9.0 | 0.10 | 0.10 | 0.10 | 86 | 1018.1 |
| 20260831155122 | 74 | 2 | 7.0 | 12.0 | 0.07 | 0.09 | 0.09 | 85 | 1018.3 |
| 20260831154123 | 74 | 2 | 9.0 | 15.0 | 0.07 | 0.07 | 0.07 | 84 | 1018.2 |
| 20260831153123 | 75 | 8 | 7.0 | 12.0 | 0.05 | 0.05 | 0.05 | 83 | 1017.9 |
| 20260831152123 | 76 | 43 | 4.0 | 7.0 | 0.03 | 0.05 | 0.05 | 80 | 1017.8 |
| 20260831151143 | 77 | 123 | 3.0 | 6.0 | 0.01 | 0.02 | 0.02 | 75 | 1017.9 |
| 20260831150144 | 77 | 73 | 4.0 | 10.0 | 0.00 | 0.00 | 0.00 | 73 | 1017.8 |
| 20260831145124 | 77 | 90 | 5.0 | 8.0 | 0.00 | 0.00 | 0.00 | 73 | 1017.6 |
| 20260831144123 | 77 | 78 | 6.0 | 10.0 | 0.00 | 0.00 | 0.00 | 74 | 1017.2 |
| 20260831143124 | 76 | 18 | 7.0 | 12.0 | 0.00 | 0.00 | 0.00 | 75 | 1017.1 |
| 20260831142123 | 76 | 12 | 9.0 | 15.0 | 0.00 | 0.00 | 0.00 | 75 | 1016.7 |
| 20260831141123 | 76 | 13 | 9.0 | 15.0 | 0.00 | 0.00 | 0.00 | 76 | 1016.3 |
| 20260831140123 | 76 | 27 | 10.0 | 16.0 | 0.00 | 0.00 | 0.00 | 76 | 1016.2 |
| 20260831135123 | 76 | 38 | 10.0 | 18.0 | 0.00 | 0.00 | 0.00 | 77 | 1016.1 |
| 20260831134123 | 76 | 68 | 8.0 | 16.0 | 0.00 | 0.00 | 0.00 | 77 | 1016.2 |
| 20260831133123 | 77 | 72 | 12.0 | 21.0 | 0.00 | 0.00 | 0.00 | 75 | 1016.1 |
| 20260831132123 | 77 | 85 | 12.0 | 19.0 | 0.00 | 0.00 | 0.00 | 74 | 1016.0 |
| 20260831131123 | 78 | 101 | 9.0 | 17.0 | 0.00 | 0.00 | 0.00 | 74 | 1015.9 |
| 20260831130144 | 78 | 104 | 10.0 | 16.0 | 0.00 | 0.00 | 0.00 | 72 | 1015.5 |
| 20260831125123 | 79 | 124 | 9.0 | 16.0 | 0.00 | 0.00 | 0.00 | 70 | 1015.5 |
| 20260831124123 | 79 | 139 | 4.0 | 8.0 | 0.00 | 0.00 | 0.00 | 69 | 1015.4 |
| 20260831123123 | 79 | 219 | 4.0 | 6.0 | 0.00 | 0.00 | 0.00 | 68 | 1015.1 |
| 20260831122123 | 79 | 252 | 4.0 | 7.0 | 0.00 | 0.00 | 0.00 | 66 | 1014.7 |
| 20260831121123 | 79 | 276 | 4.0 | 8.0 | 0.00 | 0.00 | 0.00 | 65 | 1014.3 |
| 20260831120123 | 79 | 217 | 4.0 | 6.0 | 0.00 | 0.00 | 0.00 | 65 | 1013.9 |
| 20260831115123 | 79 | 54 | 4.0 | 5.0 | 0.00 | 0.00 | 0.00 | 66 | 1013.7 |
| 20260831114123 | 79 | 55 | 3.0 | 5.0 | 0.00 | 0.00 | 0.00 | 66 | 1013.5 |
| 20260831113144 | 79 | 360 | 2.0 | 4.0 | 0.00 | 0.00 | 0.00 | 66 | 1013.4 |
| 20260831112123 | 78 | 360 | 4.0 | 6.0 | 0.00 | 0.00 | 0.00 | 67 | 1012.9 |
| 20260831111144 | 78 | 360 | 4.0 | 6.0 | 0.00 | 0.00 | 0.00 | 67 | 1012.9 |
| 20260831110123 | 78 | 1 | 4.0 | 6.0 | 0.00 | 0.00 | 0.00 | 67 | 1013.0 |
| 20260831105123 | 78 | 2 | 6.0 | 10.0 | 0.00 | 0.00 | 0.00 | 66 | 1013.1 |
| 20260831104123 | 77 | 2 | 9.0 | 14.0 | 0.00 | 0.00 | 0.00 | 66 | 1012.9 |
| 20260831103123 | 77 | 13 | 11.0 | 16.0 | 0.00 | 0.00 | 0.00 | 66 | 1012.6 |
| 20260831102122 | 77 | 15 | 10.0 | 16.0 | 0.00 | 0.00 | 0.00 | 66 | 1012.2 |
| 20260831101144 | 77 | 8 | 9.0 | 15.0 | 0.00 | 0.00 | 0.00 | 69 | 1012.3 |
| 20260831100122 | 76 | 10 | 12.0 | 19.0 | 0.00 | 0.00 | 0.00 | 71 | 1012.4 |
| 20260831095143 | 76 | 16 | 11.0 | 16.0 | 0.00 | 0.00 | 0.00 | 73 | 1012.6 |
| 20260831094122 | 76 | 63 | 12.0 | 18.0 | 0.00 | 0.00 | 0.00 | 72 | 1012.8 |
| 20260831093122 | 77 | 27 | 9.0 | 14.0 | 0.00 | 0.00 | 0.00 | 72 | 1012.6 |
| 20260831092122 | 78 | 24 | 12.0 | 19.0 | 0.00 | 0.00 | 0.00 | 70 | 1012.4 |
| 20260831091145 | 79 | 29 | 11.0 | 16.0 | 0.00 | 0.00 | 0.00 | 68 | 1012.9 |
| 20260831090122 | 79 | 26 | 11.0 | 15.0 | 0.00 | 0.00 | 0.00 | 68 | 1013.0 |
| 20260831085143 | 79 | 18 | 8.0 | 14.0 | 0.00 | 0.00 | 0.00 | 69 | 1013.3 |
| 20260831084122 | 78 | 31 | 7.0 | 11.0 | 0.00 | 0.00 | 0.00 | 70 | 1013.6 |
| 20260831083122 | 79 | 22 | 11.0 | 16.0 | 0.00 | 0.00 | 0.00 | 68 | 1013.4 |
| 20260831082122 | 81 | 41 | 12.0 | 19.0 | 0.00 | 0.00 | 0.00 | 62 | 1013.3 |
| 20260831081122 | 82 | 122 | 6.0 | 10.0 | 0.00 | 0.00 | 0.00 | 57 | 1014.0 |
| 20260831080123 | 81 | 34 | 11.0 | 18.0 | 0.00 | 0.00 | 0.00 | 57 | 1013.0 |
| 20260831075143 | 80 | 21 | 17.0 | 27.0 | 0.00 | 0.00 | 0.00 | 60 | 1012.5 |
| 20260831074122 | 80 | 19 | 12.0 | 20.0 | 0.00 | 0.00 | 0.00 | 62 | 1012.8 |
| 20260831073122 | 81 | 7 | 16.0 | 27.0 | 0.00 | 0.00 | 0.00 | 62 | 1013.0 |
| 20260831072123 | 81 | 16 | 20.0 | 32.0 | 0.00 | 0.00 | 0.00 | 61 | 1013.0 |
| 20260831071122 | 82 | 10 | 14.0 | 29.0 | 0.00 | 0.00 | 0.00 | 60 | 1013.2 |
| 20260831070122 | 83 | 18 | 13.0 | 21.0 | 0.00 | 0.00 | 0.00 | 60 | 1013.4 |
| 20260831065122 | 84 | 17 | 14.0 | 22.0 | 0.00 | 0.00 | 0.00 | 58 | 1013.3 |
| 20260831064123 | 84 | 12 | 14.0 | 20.0 | 0.00 | 0.00 | 0.00 | 56 | 1013.3 |
| 20260831063123 | 85 | 18 | 12.0 | 20.0 | 0.00 | 0.00 | 0.00 | 52 | 1013.5 |
| 20260831062143 | 85 | 12 | 14.0 | 21.0 | 0.00 | 0.00 | 0.00 | 51 | 1013.0 |
| 20260831061143 | 85 | 337 | 9.0 | 14.0 | 0.00 | 0.00 | 0.00 | 51 | 1012.9 |
| 20260831060122 | 87 | 327 | 9.0 | 19.0 | 0.00 | 0.00 | 0.00 | 51 | 1012.9 |
| 20260831055122 | 87 | 5 | 4.0 | 6.0 | 0.00 | 0.00 | 0.00 | 51 | 1012.1 |
| 20260831054144 | 87 | 336 | 4.0 | 8.0 | 0.00 | 0.00 | 0.00 | 51 | 1012.3 |
| 20260831053123 | 87 | 313 | 2.0 | 5.0 | 0.00 | 0.00 | 0.00 | 52 | 1012.3 |
| 20260831052122 | 87 | 330 | 3.0 | 5.0 | 0.00 | 0.00 | 0.00 | 52 | 1012.3 |
| 20260831051123 | 87 | 345 | 8.0 | 13.0 | 0.00 | 0.00 | 0.00 | 51 | 1012.2 |
| 20260831050122 | 88 | 325 | 5.0 | 10.0 | 0.00 | 0.00 | 0.00 | 53 | 1012.3 |
| 20260831045122 | 89 | 328 | 11.0 | 17.0 | 0.00 | 0.00 | 0.00 | 51 | 1012.3 |
| 20260831044143 | 90 | 339 | 6.0 | 12.0 | 0.00 | 0.00 | 0.00 | 47 | 1011.9 |
| 20260831043122 | 91 | 342 | 10.0 | 16.0 | 0.00 | 0.00 | 0.00 | 46 | 1011.6 |
| 20260831042122 | 92 | 313 | 8.0 | 16.0 | 0.00 | 0.00 | 0.00 | 43 | 1011.5 |
| 20260831041122 | 92 | 300 | 7.0 | 16.0 | 0.00 | 0.00 | 0.00 | 41 | 1011.7 |
| 20260831040123 | 97 | 314 | 14.0 | 22.0 | 0.00 | 0.00 | 0.00 | 36 | 1011.5 |
| 20260831035122 | 98 | 319 | 3.0 | 5.0 | 0.00 | 0.00 | 0.00 | 33 | 1010.8 |
| 20260831034122 | 98 | 323 | 2.0 | 4.0 | 0.00 | 0.00 | 0.00 | 33 | 1010.7 |
| 20260831033123 | 98 | 321 | 1.0 | 2.0 | 0.00 | 0.00 | 0.00 | 33 | 1010.6 |
| 20260831032143 | 98 | 321 | 2.0 | 2.0 | 0.00 | 0.00 | 0.00 | 33 | 1010.5 |
| 20260831031122 | 99 | 321 | 2.0 | 3.0 | 0.00 | 0.00 | 0.00 | 32 | 1010.5 |
| 20260831030122 | 99 | 321 | 2.0 | 4.0 | 0.00 | 0.00 | 0.00 | 32 | 1010.3 |
| 20260831025143 | 99 | 321 | 1.0 | 3.0 | 0.00 | 0.00 | 0.00 | 32 | 1010.2 |
| 20260831024143 | 99 | 332 | 1.0 | 3.0 | 0.00 | 0.00 | 0.00 | 32 | 1010.0 |
| 20260831023123 | 99 | 321 | 2.0 | 4.0 | 0.00 | 0.00 | 0.00 | 32 | 1009.8 |
| 20260831022122 | 99 | 324 | 3.0 | 4.0 | 0.00 | 0.00 | 0.00 | 32 | 1009.7 |
| 20260831021122 | 99 | 321 | 3.0 | 5.0 | 0.00 | 0.00 | 0.00 | 32 | 1009.5 |
| 20260831020122 | 99 | 341 | 2.0 | 5.0 | 0.00 | 0.00 | 0.00 | 31 | 1009.5 |
| 20260831015143 | 99 | 321 | 3.0 | 6.0 | 0.00 | 0.00 | 0.00 | 31 | 1009.3 |
| 20260831014123 | 100 | 328 | 5.0 | 9.0 | 0.00 | 0.00 | 0.00 | 31 | 1009.1 |
| 20260831013122 | 100 | 330 | 3.0 | 7.0 | 0.00 | 0.00 | 0.00 | 30 | 1008.9 |
| 20260831012122 | 100 | 315 | 6.0 | 10.0 | 0.00 | 0.00 | 0.00 | 30 | 1008.9 |
| 20260831011122 | 101 | 314 | 5.0 | 9.0 | 0.00 | 0.00 | 0.00 | 30 | 1009.0 |
| 20260831010122 | 100 | 260 | 2.0 | 4.0 | 0.00 | 0.00 | 0.00 | 30 | 1009.1 |
| 20260831005122 | 100 | 285 | 2.0 | 7.0 | 0.00 | 0.00 | 0.00 | 30 | 1009.0 |
| 20260831004122 | 101 | 253 | 3.0 | 7.0 | 0.00 | 0.00 | 0.00 | 30 | 1009.3 |
| 20260831003122 | 101 | 172 | 4.0 | 8.0 | 0.00 | 0.00 | 0.00 | 29 | 1009.3 |
| 20260831002123 | 101 | 207 | 4.0 | 8.0 | 0.00 | 0.00 | 0.00 | 29 | 1009.4 |
| 20260831001122 | 102 | 316 | 7.0 | 11.0 | 0.00 | 0.00 | 0.00 | 28 | 1009.4 |
| 20260831000122 | 101 | 301 | 5.0 | 11.0 | 0.00 | 0.00 | 0.00 | 29 | 1009.4 |
| 20260830235122 | 102 | 295 | 5.0 | 8.0 | 0.00 | 0.00 | 0.00 | 28 | 1009.4 |
| 20260830234123 | 102 | 319 | 3.0 | 8.0 | 0.00 | 0.00 | 0.00 | 28 | 1009.6 |
| 20260830233144 | 101 | 307 | 3.0 | 7.0 | 0.00 | 0.00 | 0.00 | 29 | 1009.6 |
| 20260830232122 | 101 | 260 | 6.0 | 12.0 | 0.00 | 0.00 | 0.00 | 29 | 1009.7 |
| 20260830231122 | 101 | 309 | 4.0 | 10.0 | 0.00 | 0.00 | 0.00 | 28 | 1009.8 |
| 20260830230122 | 102 | 194 | 4.0 | 9.0 | 0.00 | 0.00 | 0.00 | 28 | 1009.9 |
| 20260830225144 | 103 | 303 | 9.0 | 14.0 | 0.00 | 0.00 | 0.00 | 28 | 1010.1 |
| 20260830224144 | 102 | 313 | 6.0 | 13.0 | 0.00 | 0.00 | 0.00 | 30 | 1010.2 |
| 20260830223122 | 101 | 285 | 5.0 | 9.0 | 0.00 | 0.00 | 0.00 | 30 | 1010.5 |
| 20260830222143 | 101 | 273 | 3.0 | 8.0 | 0.00 | 0.00 | 0.00 | 30 | 1010.6 |
| 20260830221122 | 101 | 298 | 4.0 | 10.0 | 0.00 | 0.00 | 0.00 | 30 | 1010.8 |
| 20260830220122 | 101 | 287 | 6.0 | 12.0 | 0.00 | 0.00 | 0.00 | 30 | 1010.9 |
| 20260830215122 | 102 | 302 | 6.0 | 13.0 | 0.00 | 0.00 | 0.00 | 29 | 1011.2 |
| 20260830214122 | 102 | 169 | 3.0 | 5.0 | 0.00 | 0.00 | 0.00 | 30 | 1011.4 |
| 20260830213122 | 100 | 168 | 3.0 | 6.0 | 0.00 | 0.00 | 0.00 | 31 | 1011.6 |
| 20260830212122 | 100 | 149 | 3.0 | 10.0 | 0.00 | 0.00 | 0.00 | 32 | 1011.8 |
| 20260830211122 | 100 | 208 | 3.0 | 6.0 | 0.00 | 0.00 | 0.00 | 31 | 1012.0 |
| 20260830210143 | 100 | 255 | 6.0 | 10.0 | 0.00 | 0.00 | 0.00 | 31 | 1012.2 |
| 20260830205143 | 101 | 126 | 4.0 | 8.0 | 0.00 | 0.00 | 0.00 | 31 | 1012.4 |
| 20260830204123 | 100 | 150 | 7.0 | 13.0 | 0.00 | 0.00 | 0.00 | 31 | 1012.5 |